• In Russia
  • List of Countries
  • For 7 days
  • Water Temperature
  • Satellite Maps
  • Weather Map
  • Weather Widgets
  • user-avatar
    Login

    Hourly Weather Largutsa

    Today, 21 June, Thursday

    Time Temperature Precipitation Wind Pressure Humidity
    00:00 +24°C° 0.1 mm 2 mps 746 mmHg 73%
    01:00 +23°C° 0.1 mm 2 mps 746 mmHg 75%
    02:00 +23°C° 0 mm 2 mps 746 mmHg 75%
    03:00 +21°C° 0.1 mm 2 mps 746 mmHg 77%
    04:00 +21°C° 0.1 mm 2 mps 746 mmHg 78%
    05:00 +21°C° 0.1 mm 2 mps 746 mmHg 79%
    06:00 +24°C° 0 mm 2 mps 746 mmHg 73%
    07:00 +25°C° 0 mm 2 mps 746 mmHg 67%
    08:00 +27°C° 0 mm 2 mps 746 mmHg 58%
    09:00 +28°C° 0 mm 2 mps 746 mmHg 53%
    10:00 +29°C° 0 mm 2 mps 745 mmHg 48%
    11:00 +30°C° 0 mm 2 mps 745 mmHg 44%
    12:00 +31°C° 0 mm 1 mps 745 mmHg 42%
    13:00 +31°C° 0 mm 1 mps 744 mmHg 41%
    14:00 +32°C° 0 mm 1 mps 744 mmHg 39%
    15:00 +32°C° 0 mm 1 mps 743 mmHg 40%
    16:00 +31°C° 0 mm 1 mps 743 mmHg 42%
    17:00 +31°C° 0 mm 1 mps 742 mmHg 43%
    18:00 +30°C° 0 mm 1 mps 742 mmHg 46%
    19:00 +29°C° 0 mm 2 mps 742 mmHg 50%
    20:00 +27°C° 0 mm 2 mps 742 mmHg 53%
    21:00 +26°C° 0 mm 2 mps 742 mmHg 56%
    22:00 +26°C° 0 mm 3 mps 741 mmHg 59%
    23:00 +25°C° 0 mm 3 mps 741 mmHg 62%

    Tomorrow, 22 June, Friday

    Time Temperature Precipitation Wind Pressure Humidity
    00:00 +24°C° 0 mm 3 mps 741 mmHg 66%
    01:00 +22°C° 0 mm 3 mps 741 mmHg 69%
    02:00 +22°C° 0 mm 3 mps 741 mmHg 72%
    03:00 +21°C° 0 mm 3 mps 740 mmHg 75%
    04:00 +21°C° 0 mm 2 mps 740 mmHg 77%
    05:00 +21°C° 0 mm 2 mps 740 mmHg 80%
    06:00 +24°C° 0 mm 3 mps 740 mmHg 73%
    07:00 +26°C° 0 mm 3 mps 740 mmHg 66%
    08:00 +27°C° 0 mm 3 mps 740 mmHg 60%
    09:00 +29°C° 0.1 mm 4 mps 740 mmHg 54%
    10:00 +30°C° 0.1 mm 4 mps 740 mmHg 48%
    11:00 +33°C° 0.1 mm 4 mps 740 mmHg 42%
    12:00 +32°C° 0.2 mm 4 mps 739 mmHg 44%
    13:00 +32°C° 0.2 mm 4 mps 739 mmHg 45%
    14:00 +32°C° 0.2 mm 4 mps 739 mmHg 46%
    15:00 +29°C° 0.6 mm 5 mps 739 mmHg 53%
    16:00 +28°C° 0.6 mm 5 mps 739 mmHg 59%
    17:00 +27°C° 0.6 mm 5 mps 739 mmHg 65%
    18:00 +25°C° 1 mm 5 mps 739 mmHg 71%
    19:00 +23°C° 1 mm 5 mps 739 mmHg 76%
    20:00 +22°C° 1 mm 5 mps 739 mmHg 81%
    21:00 +21°C° 1.9 mm 6 mps 739 mmHg 84%
    22:00 +20°C° 1.9 mm 6 mps 739 mmHg 86%
    23:00 +18°C° 1.9 mm 7 mps 739 mmHg 88%

    Day after tomorrow, 23 June, Saturday

    Time Temperature Precipitation Wind Pressure Humidity
    00:00 +17°C° 0.4 mm 7 mps 739 mmHg 88%
    01:00 +17°C° 0.4 mm 7 mps 739 mmHg 87%
    02:00 +16°C° 0.4 mm 7 mps 739 mmHg 87%
    03:00 +15°C° 0 mm 7 mps 740 mmHg 86%
    04:00 +15°C° 0 mm 7 mps 740 mmHg 86%
    05:00 +13°C° 0 mm 8 mps 740 mmHg 85%
    06:00 +13°C° 0 mm 8 mps 740 mmHg 83%
    07:00 +15°C° 0 mm 8 mps 740 mmHg 80%
    08:00 +15°C° 0 mm 8 mps 741 mmHg 78%
    09:00 +13°C° 0.3 mm 8 mps 741 mmHg 78%
    10:00 +13°C° 0.3 mm 8 mps 742 mmHg 78%
    11:00 +13°C° 0.3 mm 8 mps 742 mmHg 79%
    12:00 +13°C° 0.2 mm 8 mps 742 mmHg 77%
    13:00 +14°C° 0.2 mm 7 mps 742 mmHg 76%
    14:00 +14°C° 0.2 mm 6 mps 742 mmHg 75%
    15:00 +15°C° 0 mm 6 mps 742 mmHg 69%
    16:00 +17°C° 0 mm 6 mps 742 mmHg 62%
    17:00 +19°C° 0 mm 5 mps 742 mmHg 56%
    18:00 +18°C° 0 mm 4 mps 742 mmHg 60%
    19:00 +17°C° 0 mm 3 mps 743 mmHg 65%
    20:00 +16°C° 0 mm 2 mps 743 mmHg 69%
    21:00 +15°C° 0 mm 2 mps 743 mmHg 71%
    22:00 +14°C° 0 mm 2 mps 743 mmHg 73%
    23:00 +14°C° 0 mm 1 mps 744 mmHg 75%

    24 June, Sunday

    Time Temperature Precipitation Wind Pressure Humidity
    00:00 +13°C° 0 mm 1 mps 744 mmHg 76%
    01:00 +13°C° 0 mm 1 mps 744 mmHg 77%
    02:00 +13°C° 0 mm 1 mps 744 mmHg 78%
    03:00 +12°C° 0 mm 1 mps 744 mmHg 78%
    04:00 +12°C° 0 mm 1 mps 744 mmHg 78%
    05:00 +12°C° 0 mm 1 mps 744 mmHg 79%
    06:00 +14°C° 0 mm 1 mps 745 mmHg 71%
    07:00 +16°C° 0 mm 2 mps 745 mmHg 64%
    08:00 +18°C° 0 mm 2 mps 745 mmHg 57%
    09:00 +19°C° 0 mm 2 mps 745 mmHg 53%
    10:00 +21°C° 0 mm 1 mps 745 mmHg 49%
    11:00 +23°C° 0 mm 1 mps 745 mmHg 45%
    12:00 +23°C° 0 mm 1 mps 745 mmHg 43%
    13:00 +24°C° 0 mm 1 mps 745 mmHg 42%
    14:00 +24°C° 0 mm 2 mps 745 mmHg 40%
    15:00 +24°C° 0 mm 2 mps 745 mmHg 41%
    16:00 +24°C° 0 mm 2 mps 745 mmHg 42%
    17:00 +24°C° 0 mm 2 mps 745 mmHg 43%
    18:00 +23°C° 0 mm 2 mps 745 mmHg 46%
    19:00 +22°C° 0 mm 1 mps 745 mmHg 50%
    20:00 +21°C° 0 mm 1 mps 745 mmHg 53%
    21:00 +20°C° 0.1 mm 1 mps 745 mmHg 57%
    22:00 +18°C° 0.1 mm 2 mps 745 mmHg 60%
    23:00 +17°C° 0.1 mm 2 mps 745 mmHg 64%

    25 June, Monday

    Time Temperature Precipitation Wind Pressure Humidity
    00:00 +17°C° 0.1 mm 2 mps 745 mmHg 66%
    01:00 +16°C° 0.1 mm 2 mps 745 mmHg 69%
    02:00 +16°C° 0.1 mm 1 mps 745 mmHg 72%
    03:00 +15°C° 0.1 mm 1 mps 746 mmHg 73%
    04:00 +15°C° 0.1 mm 1 mps 746 mmHg 74%
    05:00 +14°C° 0.1 mm 0 mps 746 mmHg 75%
    06:00 +18°C° 0 mm 1 mps 746 mmHg 69%
    07:00 +20°C° 0 mm 1 mps 746 mmHg 63%
    08:00 +20°C° 0 mm 2 mps 746 mmHg 57%
    09:00 +23°C° 0.1 mm 2 mps 746 mmHg 51%
    10:00 +24°C° 0.1 mm 3 mps 746 mmHg 46%
    11:00 +25°C° 0.1 mm 4 mps 746 mmHg 41%
    12:00 +26°C° 0 mm 4 mps 746 mmHg 40%
    13:00 +26°C° 0 mm 4 mps 746 mmHg 39%
    14:00 +26°C° 0 mm 3 mps 746 mmHg 38%
    15:00 +26°C° 0 mm 3 mps 746 mmHg 40%
    16:00 +26°C° 0 mm 3 mps 746 mmHg 42%
    17:00 +25°C° 0 mm 3 mps 746 mmHg 45%
    18:00 +24°C° 0 mm 3 mps 746 mmHg 49%
    19:00 +22°C° 0 mm 3 mps 746 mmHg 53%
    20:00 +21°C° 0 mm 2 mps 746 mmHg 57%
    21:00 +20°C° 0 mm 2 mps 746 mmHg 58%
    22:00 +20°C° 0 mm 1 mps 746 mmHg 59%
    23:00 +19°C° 0 mm 1 mps 746 mmHg 61%

    26 June, Tuesday

    Time Temperature Precipitation Wind Pressure Humidity
    00:00 +19°C° 0 mm 1 mps 746 mmHg 62%
    01:00 +17°C° 0 mm 2 mps 745 mmHg 62%
    02:00 +17°C° 0 mm 2 mps 745 mmHg 63%
    03:00 +17°C° 0 mm 2 mps 745 mmHg 65%
    04:00 +16°C° 0 mm 3 mps 745 mmHg 67%
    05:00 +16°C° 0 mm 3 mps 745 mmHg 69%
    06:00 +18°C° 0 mm 4 mps 745 mmHg 65%
    07:00 +20°C° 0 mm 4 mps 745 mmHg 61%
    08:00 +22°C° 0 mm 5 mps 745 mmHg 56%
    09:00 +23°C° 0 mm 5 mps 745 mmHg 51%
    10:00 +26°C° 0 mm 5 mps 745 mmHg 46%
    11:00 +27°C° 0 mm 6 mps 745 mmHg 41%
    12:00 +27°C° 0 mm 6 mps 744 mmHg 40%
    13:00 +28°C° 0 mm 6 mps 744 mmHg 39%
    14:00 +28°C° 0 mm 6 mps 744 mmHg 39%
    15:00 +28°C° 0 mm 5 mps 744 mmHg 40%
    16:00 +28°C° 0 mm 5 mps 743 mmHg 41%
    17:00 +27°C° 0 mm 4 mps 743 mmHg 43%
    18:00 +26°C° 0 mm 4 mps 743 mmHg 48%
    19:00 +25°C° 0 mm 4 mps 743 mmHg 54%
    20:00 +22°C° 0 mm 4 mps 743 mmHg 59%
    21:00 +22°C° 0 mm 4 mps 743 mmHg 61%
    22:00 +22°C° 0 mm 5 mps 742 mmHg 62%
    23:00 +22°C° 0 mm 5 mps 742 mmHg 63%
    Show more